• In Belgium
  • List of Countries
  • For 7 days
  • Water Temperature
  • Satellite Maps
  • Weather Map
  • Weather Widgets
  • user-avatar
    Login

    Hourly Weather Jackson Hole

    Today, 14 August, Tuesday

    Time Temperature Precipitation Wind Pressure Humidity
    00:00 +14°C° 0 mm 2 mps 576 mmHg 50%
    01:00 +13°C° 0 mm 2 mps 576 mmHg 53%
    02:00 +12°C° 0 mm 2 mps 576 mmHg 56%
    03:00 +10°C° 0 mm 2 mps 575 mmHg 59%
    04:00 +10°C° 0 mm 2 mps 575 mmHg 62%
    05:00 +9°C° 0 mm 2 mps 575 mmHg 65%
    06:00 +13°C° 0 mm 2 mps 576 mmHg 57%
    07:00 +15°C° 0 mm 2 mps 577 mmHg 49%
    08:00 +19°C° 0 mm 1 mps 579 mmHg 41%
    09:00 +20°C° 0 mm 2 mps 579 mmHg 33%
    10:00 +21°C° 0 mm 3 mps 580 mmHg 26%
    11:00 +23°C° 0 mm 4 mps 581 mmHg 18%
    12:00 +25°C° 0 mm 5 mps 581 mmHg 17%
    13:00 +25°C° 0 mm 5 mps 580 mmHg 15%
    14:00 +26°C° 0 mm 6 mps 580 mmHg 14%
    15:00 +25°C° 0 mm 5 mps 580 mmHg 15%
    16:00 +25°C° 0 mm 5 mps 580 mmHg 16%
    17:00 +23°C° 0 mm 5 mps 579 mmHg 17%
    18:00 +20°C° 0 mm 3 mps 578 mmHg 23%
    19:00 +17°C° 0 mm 2 mps 577 mmHg 29%
    20:00 +14°C° 0 mm 1 mps 575 mmHg 35%
    21:00 +13°C° 0 mm 1 mps 575 mmHg 36%
    22:00 +12°C° 0 mm 1 mps 575 mmHg 37%
    23:00 +12°C° 0 mm 2 mps 575 mmHg 38%

    Tomorrow, 15 August, Wednesday

    Time Temperature Precipitation Wind Pressure Humidity
    00:00 +10°C° 0 mm 2 mps 575 mmHg 40%
    01:00 +9°C° 0 mm 2 mps 575 mmHg 41%
    02:00 +9°C° 0 mm 2 mps 575 mmHg 42%
    03:00 +9°C° 0 mm 1 mps 574 mmHg 43%
    04:00 +9°C° 0 mm 1 mps 574 mmHg 43%
    05:00 +8°C° 0 mm 1 mps 574 mmHg 44%
    06:00 +11°C° 0 mm 1 mps 576 mmHg 39%
    07:00 +14°C° 0 mm 1 mps 577 mmHg 33%
    08:00 +18°C° 0 mm 1 mps 579 mmHg 28%
    09:00 +21°C° 0 mm 1 mps 580 mmHg 24%
    10:00 +23°C° 0 mm 2 mps 581 mmHg 20%
    11:00 +25°C° 0 mm 2 mps 582 mmHg 16%
    12:00 +26°C° 0 mm 3 mps 582 mmHg 15%
    13:00 +27°C° 0 mm 3 mps 582 mmHg 13%
    14:00 +27°C° 0 mm 4 mps 582 mmHg 12%
    15:00 +27°C° 0 mm 4 mps 581 mmHg 12%
    16:00 +27°C° 0 mm 4 mps 581 mmHg 13%
    17:00 +26°C° 0 mm 3 mps 580 mmHg 13%
    18:00 +23°C° 0 mm 2 mps 579 mmHg 18%
    19:00 +18°C° 0 mm 2 mps 578 mmHg 24%
    20:00 +14°C° 0 mm 1 mps 576 mmHg 29%
    21:00 +14°C° 0 mm 1 mps 576 mmHg 29%
    22:00 +13°C° 0 mm 1 mps 576 mmHg 30%
    23:00 +12°C° 0 mm 1 mps 576 mmHg 31%

    Day after tomorrow, 16 August, Thursday

    Time Temperature Precipitation Wind Pressure Humidity
    00:00 +12°C° 0 mm 1 mps 576 mmHg 31%
    01:00 +11°C° 0 mm 1 mps 576 mmHg 32%
    02:00 +11°C° 0 mm 1 mps 576 mmHg 32%
    03:00 +11°C° 0 mm 1 mps 576 mmHg 32%
    04:00 +11°C° 0 mm 1 mps 577 mmHg 33%
    05:00 +11°C° 0 mm 1 mps 577 mmHg 33%
    06:00 +13°C° 0 mm 1 mps 578 mmHg 30%
    07:00 +16°C° 0 mm 1 mps 580 mmHg 28%
    08:00 +20°C° 0 mm 1 mps 582 mmHg 26%
    09:00 +22°C° 0 mm 1 mps 582 mmHg 24%
    10:00 +24°C° 0 mm 2 mps 583 mmHg 23%
    11:00 +26°C° 0 mm 3 mps 584 mmHg 21%
    12:00 +27°C° 0 mm 3 mps 584 mmHg 21%
    13:00 +27°C° 0 mm 3 mps 584 mmHg 21%
    14:00 +28°C° 0 mm 3 mps 584 mmHg 21%
    15:00 +27°C° 0 mm 3 mps 583 mmHg 22%
    16:00 +27°C° 0 mm 3 mps 583 mmHg 23%
    17:00 +27°C° 0 mm 3 mps 583 mmHg 23%
    18:00 +24°C° 0.1 mm 2 mps 582 mmHg 31%
    19:00 +20°C° 0.1 mm 1 mps 581 mmHg 39%
    20:00 +15°C° 0.1 mm 0 mps 579 mmHg 47%
    21:00 +15°C° 0.1 mm 1 mps 579 mmHg 49%
    22:00 +15°C° 0.1 mm 1 mps 579 mmHg 51%
    23:00 +14°C° 0.1 mm 1 mps 579 mmHg 54%

    17 August, Friday

    Time Temperature Precipitation Wind Pressure Humidity
    00:00 +13°C° 0 mm 1 mps 579 mmHg 56%
    01:00 +13°C° 0 mm 1 mps 579 mmHg 59%
    02:00 +12°C° 0 mm 1 mps 578 mmHg 62%
    03:00 +12°C° 0.1 mm 1 mps 578 mmHg 63%
    04:00 +12°C° 0.1 mm 1 mps 578 mmHg 64%
    05:00 +11°C° 0.1 mm 1 mps 578 mmHg 65%
    06:00 +14°C° 0 mm 1 mps 580 mmHg 57%
    07:00 +18°C° 0 mm 1 mps 581 mmHg 50%
    08:00 +21°C° 0 mm 1 mps 582 mmHg 42%
    09:00 +23°C° 0 mm 1 mps 583 mmHg 36%
    10:00 +26°C° 0 mm 1 mps 584 mmHg 29%
    11:00 +29°C° 0 mm 1 mps 585 mmHg 23%
    12:00 +28°C° 0 mm 1 mps 585 mmHg 23%
    13:00 +28°C° 0 mm 2 mps 584 mmHg 22%
    14:00 +27°C° 0 mm 2 mps 584 mmHg 22%
    15:00 +26°C° 0.2 mm 2 mps 582 mmHg 30%
    16:00 +24°C° 0.2 mm 3 mps 581 mmHg 39%
    17:00 +21°C° 0.2 mm 3 mps 580 mmHg 47%
    18:00 +19°C° 0.3 mm 2 mps 580 mmHg 56%
    19:00 +17°C° 0.3 mm 2 mps 579 mmHg 65%
    20:00 +15°C° 0.3 mm 1 mps 579 mmHg 74%
    21:00 +14°C° 0.7 mm 1 mps 579 mmHg 77%
    22:00 +13°C° 0.7 mm 1 mps 579 mmHg 81%
    23:00 +13°C° 0.7 mm 1 mps 578 mmHg 84%

    18 August, Saturday

    Time Temperature Precipitation Wind Pressure Humidity
    00:00 +12°C° 0.2 mm 1 mps 578 mmHg 86%
    01:00 +12°C° 0.2 mm 1 mps 577 mmHg 88%
    02:00 +11°C° 0.2 mm 1 mps 577 mmHg 89%
    03:00 +11°C° 0.2 mm 1 mps 577 mmHg 90%
    04:00 +10°C° 0.2 mm 1 mps 577 mmHg 91%
    05:00 +10°C° 0.2 mm 1 mps 576 mmHg 92%
    06:00 +11°C° 0.8 mm 1 mps 577 mmHg 86%
    07:00 +13°C° 0.8 mm 1 mps 578 mmHg 81%
    08:00 +15°C° 0.8 mm 1 mps 579 mmHg 75%
    09:00 +17°C° 0.4 mm 2 mps 580 mmHg 63%
    10:00 +18°C° 0.4 mm 3 mps 580 mmHg 50%
    11:00 +20°C° 0.4 mm 4 mps 581 mmHg 37%
    12:00 +21°C° 0 mm 4 mps 581 mmHg 36%
    13:00 +21°C° 0 mm 4 mps 581 mmHg 34%
    14:00 +22°C° 0 mm 5 mps 581 mmHg 33%
    15:00 +20°C° 0.5 mm 4 mps 580 mmHg 42%
    16:00 +19°C° 0.5 mm 4 mps 580 mmHg 51%
    17:00 +17°C° 0.5 mm 3 mps 579 mmHg 60%
    18:00 +16°C° 0.4 mm 3 mps 579 mmHg 68%
    19:00 +14°C° 0.4 mm 2 mps 578 mmHg 75%
    20:00 +12°C° 0.4 mm 1 mps 577 mmHg 83%
    21:00 +11°C° 0 mm 1 mps 577 mmHg 86%
    22:00 +11°C° 0 mm 1 mps 577 mmHg 89%
    23:00 +10°C° 0 mm 1 mps 577 mmHg 91%

    19 August, Sunday

    Time Temperature Precipitation Wind Pressure Humidity
    00:00 +9°C° 0 mm 1 mps 577 mmHg 92%
    01:00 +9°C° 0 mm 1 mps 577 mmHg 93%
    02:00 +9°C° 0 mm 1 mps 577 mmHg 93%
    03:00 +9°C° 0 mm 1 mps 577 mmHg 94%
    04:00 +8°C° 0 mm 1 mps 577 mmHg 94%
    05:00 +8°C° 0 mm 1 mps 577 mmHg 94%
    06:00 +10°C° 0 mm 1 mps 578 mmHg 88%
    07:00 +12°C° 0 mm 1 mps 579 mmHg 82%
    08:00 +13°C° 0 mm 1 mps 580 mmHg 76%
    09:00 +16°C° 0 mm 1 mps 581 mmHg 64%
    10:00 +20°C° 0 mm 1 mps 582 mmHg 52%
    11:00 +23°C° 0 mm 1 mps 583 mmHg 40%
    12:00 +24°C° 0 mm 2 mps 583 mmHg 37%
    13:00 +24°C° 0 mm 2 mps 583 mmHg 33%
    14:00 +25°C° 0 mm 2 mps 583 mmHg 30%
    15:00 +24°C° 0 mm 2 mps 582 mmHg 31%
    16:00 +24°C° 0 mm 2 mps 582 mmHg 31%
    17:00 +22°C° 0 mm 3 mps 581 mmHg 32%
    18:00 +19°C° 0 mm 2 mps 580 mmHg 39%
    19:00 +17°C° 0 mm 2 mps 580 mmHg 47%
    20:00 +14°C° 0 mm 1 mps 579 mmHg 54%
    21:00 +13°C° 0 mm 1 mps 578 mmHg 58%
    22:00 +12°C° 0 mm 1 mps 578 mmHg 62%
    23:00 +11°C° 0 mm 1 mps 578 mmHg 66%
    Show more